Home   Weather   Molde   Past weeks

Flag for Norway Past Weather in Molde, Norway — Yesterday and Last 2 Weeks

Now
66 °F

Sunny.


Feels Like: 66 °F
Forecast: 58 / 70 °F
Wind: 7 mph from Southwest

Location: Aro

Current Time: Jul 16, 2018 at 10:11:32 am

Latest Report: Jul 16, 2018 at 9:20 am


Visibility: 10 mi

Pressure: 29.95 "Hg

Humidity: 73%

Dew Point: 57 °F

Location of MoldeLocation

Past Weather in Molde — Graph

°F

Molde Temperature Yesterday

Maximum temperature yesterday: 72 °F (at 4:50 pm)
Minimum temperature yesterday: 57 °F (at 3:20 am)
Average temperature yesterday: 64 °F

High & Low Weather Summary for the Past Weeks

 TemperatureHumidityPressure
High75 °F (Jul 1, 2:50 pm)94% (Jul 11, 1:50 am)30.27 "Hg (Jul 11, 1:50 am)
Low50 °F (Jul 6, 1:20 am)31% (Jul 1, 4:50 pm)29.71 "Hg (Jul 5, 5:50 am)
Average60 °F72%30.08 "Hg
* Reported Jul 1 8:20 am — Jul 16 8:20 am, Molde. Weather by CustomWeather, © 2018

Note: Actual official high and low records may vary slightly from our data, if they occured in-between our weather recording intervals... More about our weather records

Advertising

Molde Weather History for the Previous 24 Hours

Scroll right to see more
 ConditionsComfort  
Time TempWeatherWind HumidityBarometerVisibility
8:20 am
Mon, Jul 16
63 °FScattered clouds.2 mph83%29.95 "HgN/A
7:50 am63 °FPartly sunny.1 mph83%29.95 "HgN/A
7:20 am61 °FPartly sunny.1 mph88%29.95 "HgN/A
6:50 am61 °FPartly sunny.2 mph88%29.95 "HgN/A
6:20 am63 °FScattered clouds.3 mph77%29.95 "HgN/A
5:50 am61 °FCool.2 mph83%29.95 "HgN/A
5:20 am59 °FCool.3 mph88%29.95 "HgN/A
4:50 am57 °FCool.5 mph88%29.95 "HgN/A
4:20 am57 °FCool.3 mph88%29.95 "HgN/A
3:20 am61 °FCool.6 mph83%29.95 "HgN/A
2:50 am61 °FCool.5 mph83%29.95 "HgN/A
2:20 am63 °FPassing clouds.5 mph77%29.95 "HgN/A
1:50 am63 °FOvercast.6 mph77%29.98 "HgN/A
1:20 am64 °FOvercast.6 mph73%29.98 "HgN/A
12:50 am63 °FOvercast.6 mph77%29.98 "HgN/A
12:20 am63 °FPassing clouds.8 mph77%29.98 "HgN/A
11:50 pm
Sun, Jul 15
64 °FOvercast.8 mph73%29.98 "HgN/A
11:20 pm64 °FClear.7 mph73%29.98 "Hg10 mi
10:50 pm64 °FSunny.8 mph78%29.98 "Hg10 mi
10:20 pm64 °FBroken clouds.5 mph83%29.98 "HgN/A
9:50 pm64 °FScattered clouds.5 mph78%29.98 "HgN/A
9:20 pm66 °FScattered clouds.6 mph73%29.98 "HgN/A
8:50 pm66 °FPartly sunny.5 mph78%29.98 "HgN/A
8:20 pm70 °FPartly sunny.9 mph64%29.98 "HgN/A
7:50 pm70 °FPartly sunny.8 mph64%29.98 "HgN/A
7:20 pm70 °FPartly sunny.3 mph64%29.98 "HgN/A
6:50 pm70 °FScattered clouds.6 mph64%29.98 "HgN/A
6:20 pm70 °FScattered clouds.6 mph60%29.98 "HgN/A
5:50 pm72 °FScattered clouds.9 mph61%29.98 "HgN/A
5:20 pm72 °FPartly sunny.9 mph57%29.98 "HgN/A
4:50 pm72 °FBroken clouds.7 mph57%29.98 "HgN/A
4:20 pm70 °FPartly sunny.6 mph60%29.98 "HgN/A
3:50 pm68 °FPartly sunny.6 mph64%29.98 "HgN/A
3:20 pm68 °FPartly sunny.7 mph64%29.98 "HgN/A
2:50 pm68 °FPartly sunny.3 mph64%29.98 "HgN/A
2:20 pm68 °FPartly sunny.3 mph64%29.98 "HgN/A
1:50 pm68 °FScattered showers. Partly sunny.7 mph64%29.98 "HgN/A
1:20 pm66 °FPartly sunny.3 mph68%29.98 "HgN/A
12:50 pm66 °FPartly sunny.3 mph68%29.98 "HgN/A
12:20 pm64 °FPartly sunny.6 mph73%29.95 "HgN/A
11:50 am63 °FPartly sunny.13 mph77%29.95 "HgN/A
11:20 am63 °FPartly sunny.8 mph77%29.95 "HgN/A
10:50 am63 °FPartly sunny.7 mph83%29.95 "HgN/A
10:20 am64 °FOvercast.7 mph78%29.95 "HgN/A
Weather by CustomWeather, © 2018

See weather overview